This is the latest recevied weather packets stored in our database for station/object WZ8H. If no packets are shown the sender has not sent any weather packets the latest 10 day(s).
| Time | Temp. | Humidity | Pressure | Rain* | Wind** | Luminosity | Snow |
|---|---|---|---|---|---|---|---|
| 1777421770 | 16.11° C | 78% | 1012 hPa | 0 mm | - | 7 W/m² | - |
| 1777421467 | 16.11° C | 77% | 1011.7 hPa | 0 mm | - | 12 W/m² | - |
| 1777421139 | 16.11° C | 77% | 1011.7 hPa | 0 mm | - | 16 W/m² | - |
| 1777420837 | 16.67° C | 77% | 1011.8 hPa | 0 mm | - | 12 W/m² | - |
| 1777420515 | 16.67° C | 77% | 1011.9 hPa | 0 mm | - | 18 W/m² | - |
| 1777420207 | 16.67° C | 77% | 1011.9 hPa | 0 mm | - | 25 W/m² | - |
| 1777419882 | 16.67° C | 76% | 1011.9 hPa | 0 mm | - | 37 W/m² | - |
| 1777419568 | 16.67° C | 77% | 1011.9 hPa | 0 mm | - | 32 W/m² | - |
| 1777419224 | 16.67° C | 76% | 1012 hPa | 0 mm | - | 35 W/m² | - |
| 1777418920 | 16.67° C | 76% | 1012.2 hPa | 0 mm | - | 42 W/m² | - |
| 1777418613 | 16.67° C | 76% | 1012.4 hPa | 0 mm | - | 44 W/m² | - |
| 1777418285 | 16.67° C | 77% | 1012.4 hPa | 0 mm | - | 35 W/m² | - |
| 1777417957 | 16.67° C | 77% | 1012.5 hPa | 0 mm | - | 37 W/m² | - |
| 1777417658 | 16.67° C | 77% | 1012.5 hPa | 0 mm | - | 42 W/m² | - |
| 1777417351 | 16.67° C | 77% | 1012.2 hPa | 0 mm | - | 56 W/m² | - |
| 1777417037 | 17.22° C | 76% | 1012.3 hPa | 0 mm | - | 51 W/m² | - |
| 1777416735 | 17.22° C | 76% | 1012.1 hPa | 0 mm | - | 98 W/m² | - |
| 1777416431 | 17.22° C | 76% | 1012 hPa | 0 mm | - | 118 W/m² | - |
| 1777416129 | 17.22° C | 76% | 1011.9 hPa | 0 mm | - | 130 W/m² | - |
| 1777415801 | 17.22° C | 75% | 1012 hPa | 0 mm | - | 130 W/m² | - |
| 1777415499 | 17.78° C | 75% | 1011.9 hPa | 0 mm | - | 127 W/m² | - |
| 1777415174 | 17.78° C | 75% | 1011.8 hPa | 0 mm | - | 144 W/m² | - |
| 1777414850 | 17.78° C | 75% | 1011.6 hPa | 0 mm | - | 111 W/m² | - |
| 1777414543 | 17.78° C | 75% | 1011.7 hPa | 0 mm | - | 216 W/m² | - |
| 1777414217 | 17.78° C | 74% | 1011.6 hPa | 0 mm | - | 197 W/m² | - |
* Rain latest hour (hover to see other rain measurements)
** Current wind speed in m/s (hover to see current wind gust speed)